| time (UTC) | temp F | wind direction | speed MPH | gust MPH | rain 1hr in | rain 24hr in | rain mn in | humidity % | barometer mb |
| 20260901031004 | 94 | 275 | 1.0 | 12.0 | 0.00 | 0.00 | 0.00 | 35 | 936.9 |
| 20260901030003 | 94 | 289 | 1.0 | 12.0 | 0.00 | 0.00 | 0.00 | 35 | 936.9 |
| 20260901025004 | 94 | 319 | 2.0 | 5.0 | 0.00 | 0.00 | 0.00 | 35 | 936.9 |
| 20260901024003 | 94 | 306 | 0.0 | 0.0 | 0.00 | 0.00 | 0.00 | 35 | 936.9 |
| 20260901023003 | 94 | 303 | 1.0 | 9.0 | 0.00 | 0.00 | 0.00 | 35 | 936.9 |
| 20260901022003 | 94 | 285 | 3.0 | 9.0 | 0.00 | 0.00 | 0.00 | 35 | 936.9 |
| 20260901021004 | 94 | 297 | 1.0 | 10.0 | 0.00 | 0.00 | 0.00 | 35 | 936.9 |
| 20260901020004 | 94 | 295 | 6.0 | 12.0 | 0.00 | 0.00 | 0.00 | 35 | 936.9 |
| 20260901015004 | 94 | 291 | 1.0 | 5.0 | 0.00 | 0.00 | 0.00 | 35 | 936.9 |
| 20260901013004 | 94 | 279 | 5.0 | 12.0 | 0.00 | 0.00 | 0.00 | 35 | 936.9 |
| 20260901012003 | 94 | 299 | 3.0 | 12.0 | 0.00 | 0.00 | 0.00 | 35 | 936.9 |
| 20260901011004 | 94 | 284 | 3.0 | 7.0 | 0.00 | 0.00 | 0.00 | 35 | 936.9 |
| 20260901010004 | 94 | 314 | 2.0 | 14.0 | 0.00 | 0.00 | 0.00 | 35 | 936.9 |
| 20260901005003 | 94 | 318 | 2.0 | 13.0 | 0.00 | 0.00 | 0.00 | 35 | 936.9 |
| 20260901004004 | 94 | 302 | 5.0 | 13.0 | 0.00 | 0.00 | 0.00 | 35 | 936.9 |
| 20260901003003 | 94 | 301 | 6.0 | 14.0 | 0.00 | 0.00 | 0.00 | 35 | 936.9 |
| 20260901002004 | 94 | 299 | 7.0 | 16.0 | 0.00 | 0.00 | 0.00 | 35 | 936.9 |
| 20260901001004 | 94 | 307 | 7.0 | 16.0 | 0.00 | 0.00 | 0.00 | 35 | 936.9 |
| 20260901000003 | 94 | 319 | 6.0 | 18.0 | 0.00 | 0.00 | 0.00 | 35 | 936.9 |
| 20260831235004 | 94 | 296 | 7.0 | 16.0 | 0.00 | 0.00 | 0.00 | 35 | 936.9 |
| 20260831233003 | 94 | 305 | 10.0 | 16.0 | 0.00 | 0.00 | 0.00 | 35 | 936.9 |
| 20260831232004 | 94 | 299 | 7.0 | 15.0 | 0.00 | 0.00 | 0.00 | 35 | 936.9 |
| 20260831231004 | 94 | 306 | 7.0 | 14.0 | 0.00 | 0.00 | 0.00 | 35 | 936.9 |
| 20260831230003 | 94 | 313 | 5.0 | 15.0 | 0.00 | 0.00 | 0.00 | 35 | 936.9 |
| 20260831225003 | 94 | 303 | 2.0 | 15.0 | 0.00 | 0.00 | 0.00 | 35 | 936.9 |
| 20260831153004 | 94 | 136 | 0.0 | 0.0 | 0.00 | 0.00 | 0.00 | 35 | 936.9 |
| 20260831152004 | 94 | 150 | 0.0 | 0.0 | 0.00 | 0.00 | 0.00 | 35 | 936.9 |
| 20260831151003 | 94 | 153 | 0.0 | 0.0 | 0.00 | 0.00 | 0.00 | 35 | 936.9 |
| 20260831150003 | 94 | 160 | 0.0 | 0.0 | 0.00 | 0.00 | 0.00 | 35 | 936.9 |
| 20260831145003 | 94 | 160 | 0.0 | 0.0 | 0.00 | 0.00 | 0.00 | 35 | 936.9 |
| 20260831141004 | 94 | 69 | 0.0 | 0.0 | 0.00 | 0.00 | 0.00 | 35 | 936.9 |
| 20260831140004 | 94 | 69 | 0.0 | 0.0 | 0.00 | 0.00 | 0.00 | 35 | 936.9 |
| 20260831134004 | 94 | 69 | 0.0 | 0.0 | 0.00 | 0.00 | 0.00 | 35 | 936.9 |
| 20260831121003 | 94 | 91 | 0.0 | 0.0 | 0.00 | 0.00 | 0.00 | 35 | 936.9 |
| 20260831120003 | 94 | 92 | 0.0 | 0.0 | 0.00 | 0.00 | 0.00 | 35 | 936.9 |
| 20260831115003 | 94 | 91 | 0.0 | 0.0 | 0.00 | 0.00 | 0.00 | 35 | 936.9 |
| 20260831114004 | 94 | 91 | 0.0 | 0.0 | 0.00 | 0.00 | 0.00 | 35 | 936.9 |
| 20260831113003 | 94 | 91 | 0.0 | 0.0 | 0.00 | 0.00 | 0.00 | 35 | 936.9 |
| 20260831111003 | 94 | 83 | 0.0 | 0.0 | 0.00 | 0.00 | 0.00 | 35 | 936.9 |
| 20260831110004 | 94 | 82 | 0.0 | 0.0 | 0.00 | 0.00 | 0.00 | 35 | 936.9 |
| 20260831105004 | 94 | 82 | 0.0 | 0.0 | 0.00 | 0.00 | 0.00 | 35 | 936.9 |
| 20260831103004 | 94 | 82 | 0.0 | 0.0 | 0.00 | 0.00 | 0.00 | 35 | 936.9 |
| 20260831102004 | 94 | 82 | 0.0 | 0.0 | 0.00 | 0.00 | 0.00 | 35 | 936.9 |
| 20260831101004 | 94 | 82 | 0.0 | 0.0 | 0.00 | 0.00 | 0.00 | 35 | 936.9 |
| 20260831095003 | 94 | 82 | 0.0 | 0.0 | 0.00 | 0.00 | 0.00 | 35 | 936.9 |
| 20260831093003 | 94 | 84 | 0.0 | 0.0 | 0.00 | 0.00 | 0.00 | 35 | 936.9 |
| 20260831092004 | 94 | 51 | 0.0 | 0.0 | 0.00 | 0.00 | 0.00 | 35 | 936.9 |
| 20260831091004 | 94 | 286 | 0.0 | 0.0 | 0.00 | 0.00 | 0.00 | 35 | 936.9 |
| 20260831090003 | 94 | 286 | 0.0 | 0.0 | 0.00 | 0.00 | 0.00 | 35 | 936.9 |
| 20260831082004 | 94 | 286 | 0.0 | 0.0 | 0.00 | 0.00 | 0.00 | 35 | 936.9 |
| 20260831081004 | 94 | 286 | 0.0 | 0.0 | 0.00 | 0.00 | 0.00 | 35 | 936.9 |
| 20260831080004 | 94 | 287 | 0.0 | 0.0 | 0.00 | 0.00 | 0.00 | 35 | 936.9 |
| 20260831075004 | 94 | 287 | 0.0 | 0.0 | 0.00 | 0.00 | 0.00 | 35 | 936.9 |
| 20260831074003 | 94 | 287 | 0.0 | 0.0 | 0.00 | 0.00 | 0.00 | 35 | 936.9 |
| 20260831073004 | 94 | 287 | 0.0 | 0.0 | 0.00 | 0.00 | 0.00 | 35 | 936.9 |
| 20260831072003 | 94 | 288 | 0.0 | 0.0 | 0.00 | 0.00 | 0.00 | 35 | 936.9 |
| 20260831071003 | 94 | 288 | 0.0 | 0.0 | 0.00 | 0.00 | 0.00 | 35 | 936.9 |
| 20260831064004 | 94 | 282 | 0.0 | 0.0 | 0.00 | 0.00 | 0.00 | 35 | 936.9 |
| 20260831063004 | 94 | 282 | 0.0 | 0.0 | 0.00 | 0.00 | 0.00 | 35 | 936.9 |
| 20260831062004 | 94 | 282 | 0.0 | 0.0 | 0.00 | 0.00 | 0.00 | 35 | 936.9 |
| 20260831061004 | 94 | 281 | 0.0 | 0.0 | 0.00 | 0.00 | 0.00 | 35 | 936.9 |
| 20260831060003 | 94 | 281 | 0.0 | 0.0 | 0.00 | 0.00 | 0.00 | 35 | 936.9 |
| 20260831054004 | 94 | 281 | 0.0 | 0.0 | 0.00 | 0.00 | 0.00 | 35 | 936.9 |
| 20260831053004 | 94 | 280 | 0.0 | 0.0 | 0.00 | 0.00 | 0.00 | 35 | 936.9 |
| 20260831052004 | 94 | 280 | 0.0 | 0.0 | 0.00 | 0.00 | 0.00 | 35 | 936.9 |
| 20260831051003 | 94 | 280 | 0.0 | 0.0 | 0.00 | 0.00 | 0.00 | 35 | 936.9 |
| 20260831050003 | 94 | 280 | 0.0 | 0.0 | 0.00 | 0.00 | 0.00 | 35 | 936.9 |
| 20260831044003 | 94 | 280 | 0.0 | 0.0 | 0.00 | 0.00 | 0.00 | 35 | 936.9 |
| 20260831043004 | 94 | 280 | 0.0 | 0.0 | 0.00 | 0.00 | 0.00 | 35 | 936.9 |
| 20260831040004 | 94 | 281 | 0.0 | 0.0 | 0.00 | 0.00 | 0.00 | 35 | 936.9 |
| 20260831035004 | 94 | 289 | 0.0 | 0.0 | 0.00 | 0.00 | 0.00 | 35 | 936.9 |
| 20260831033004 | 94 | 288 | 0.0 | 0.0 | 0.00 | 0.00 | 0.00 | 35 | 936.9 |
| 20260831032003 | 94 | 317 | 0.0 | 0.0 | 0.00 | 0.00 | 0.00 | 35 | 936.9 |